Location: Peterborough
(44.3091°N, 78.3197°W)
Time: 07:17:13
(UTC-04:00)

A-11 Canister half - Pass Details

Date: 27 March 2023
Orbit: 1513 x 1686 km, 47.2° (Epoch: 04 June)

Event Time Altitude Azimuth Distance (km) Brightness Sun altitude
Rises 20:10:06 0° 196° (SSW) 4,744 11.6 -7.2°
Reaches altitude 10° 20:13:40 10° 186° (S) 3,789 11.0 -7.8°
Maximum altitude 20:21:31 29° 131° (SE) 2,649 9.8 -9.2°
Drops below altitude 10° 20:29:35 10° 76° (ENE) 3,910 10.6 -10.6°
Enters shadow 20:31:58 - 69° (ENE) 4,546 11.0 -11.0°
